Cuero, Texas, United States (77954)
Lat: 29.09N, Lon: 97.29W
Wx Zone: TXZ224
Local Info
Past Weather Observations for Today

NOTE: This archive is for the closest National Weather Service station to Cuero. Information may differ from the station used for current weather conditions.

Click here for Long-term Archive

Time Weather Temperature Dewpoint Humidity Pressure Winds Precip Visibility
16:51
Clear
72°F / 22°C 59°F / 15°C 65% 29.62 in
(1003 mb)
SSE 8.1 mph
(SSE 13 kph)
- 10SM
15:51
Clear
73°F / 23°C 61°F / 16°C 65% 29.65 in
(1004 mb)
SSE 8.1 mph
(SSE 13 kph)
- 10SM
14:51
Clear
75°F / 24°C 61°F / 16°C 61% 29.65 in
(1004 mb)
SW 9.2 mph
(SW 15 kph)
- 10SM
13:51
Partly Cloudy
73°F / 23°C 61°F / 16°C 65% 29.68 in
(1005 mb)
SW 10.4 mph
(SW 17 kph)
- 10SM
12:51
Partly Cloudy
72°F / 22°C 61°F / 16°C 69% 29.71 in
(1006 mb)
S 13.8 mph
(S 22 kph)
- 10SM
11:56
Partly Cloudy
70°F / 21°C 61°F / 16°C 73% 29.74 in
(1007 mb)
SW 12.7 mph
(SW 20 kph)
- 10SM
11:51
Clear
70°F / 21°C 61°F / 16°C 73% 29.74 in
(1007 mb)
SW 15 mph
(SW 24 kph)
- 10SM
11:26
Partly Cloudy
70°F / 21°C 61°F / 16°C 73% 29.77 in
(1008 mb)
SW 15 mph
(SW 24 kph)
- 10SM
10:51
Overcast
70°F / 21°C 61°F / 16°C 73% 29.77 in
(1008 mb)
SW 12.7 mph
(SW 20 kph)
- 10SM
10:42
Overcast
66°F / 19°C 61°F / 16°C 83% 29.77 in
(1008 mb)
SW 17.3 mph
(SW 28 kph)
- 10SM
09:51
Overcast
66°F / 19°C 61°F / 16°C 83% 29.77 in
(1008 mb)
SW 11.5 mph
(SW 19 kph)
- 10SM
08:51
Overcast
63°F / 17°C 59°F / 15°C 88% 29.8 in
(1009 mb)
SW 8.1 mph
(SW 13 kph)
- 7SM
07:57
Overcast
Fog And Mist
61°F / 16°C 59°F / 15°C 94% 29.8 in
(1009 mb)
SSW 8.1 mph
(SSW 13 kph)
- 4SM
07:51
Overcast
Fog And Mist
61°F / 16°C 59°F / 15°C 94% 29.8 in
(1009 mb)
SW 8.1 mph
(SW 13 kph)
- 2SM
07:33
Overcast
Fog And Mist
61°F / 16°C 59°F / 15°C 94% 29.8 in
(1009 mb)
SSW 9.2 mph
(SSW 15 kph)
- 2SM
07:15
Overcast
Fog And Mist
61°F / 16°C 59°F / 15°C 94% 29.8 in
(1009 mb)
SW 9.2 mph
(SW 15 kph)
- 2SM
06:51
Overcast
Fog And Mist
61°F / 16°C 59°F / 15°C 94% 29.77 in
(1008 mb)
SW 8.1 mph
(SW 13 kph)
- 2SM
06:25
Overcast
Fog And Mist
61°F / 16°C 61°F / 16°C 100% 29.77 in
(1008 mb)
SW 10.4 mph
(SW 17 kph)
- 1 1/2SM
06:14
Obscured
Fog
61°F / 16°C 61°F / 16°C 100% 29.77 in
(1008 mb)
SW 9.2 mph
(SW 15 kph)
- 1/2SM
06:06
Obscured
Fog
61°F / 16°C 61°F / 16°C 100% 29.77 in
(1008 mb)
SW 8.1 mph
(SW 13 kph)
- 1/4SM
05:51
Overcast
Fog
61°F / 16°C 61°F / 16°C 100% 29.77 in
(1008 mb)
SSW 5.8 mph
(SSW 9 kph)
- 1/2SM
05:42
Overcast
Fog
61°F / 16°C 61°F / 16°C 100% 29.77 in
(1008 mb)
SW 6.9 mph
(SW 11 kph)
- 1/2SM
05:17
Overcast
Fog And Mist
61°F / 16°C 59°F / 15°C 94% 29.77 in
(1008 mb)
Calm - 1SM
04:51
Obscured
Fog
61°F / 16°C 59°F / 15°C 94% 29.77 in
(1008 mb)
Calm - 1/2SM
04:46
Obscured
Fog
61°F / 16°C 59°F / 15°C 94% 29.77 in
(1008 mb)
Calm - 1/2SM
04:24
Obscured
Fog
59°F / 15°C 57°F / 14°C 94% 29.8 in
(1009 mb)
Calm - 1/4SM
04:09
Obscured
Fog
59°F / 15°C 57°F / 14°C 94% 29.8 in
(1009 mb)
Calm - 1/2SM
03:51
Obscured
Fog
59°F / 15°C 57°F / 14°C 94% 29.8 in
(1009 mb)
Calm - 1/4SM
02:56
Overcast
Fog
57°F / 14°C 55°F / 13°C 94% 29.8 in
(1009 mb)
Calm - 1/4SM
02:51
Overcast
Fog
57°F / 14°C 57°F / 14°C 100% 29.8 in
(1009 mb)
Calm - 1/2SM
02:49
Overcast
Fog
57°F / 14°C 57°F / 14°C 100% 29.8 in
(1009 mb)
Calm - 1/2SM
02:21
Overcast
Fog And Mist
59°F / 15°C 57°F / 14°C 94% 29.83 in
(1010 mb)
N 3.5 mph
(N 6 kph)
- 1SM
02:01
Overcast
Fog And Mist
57°F / 14°C 55°F / 13°C 94% 29.83 in
(1010 mb)
Calm - 3/4SM
01:51
Overcast
Fog And Mist
57°F / 14°C 55°F / 13°C 94% 29.83 in
(1010 mb)
Calm - 1SM
01:19
Overcast
Fog And Mist
57°F / 14°C 55°F / 13°C 94% 29.83 in
(1010 mb)
Calm - 2 1/2SM
00:51
Overcast
Fog And Mist
59°F / 15°C 57°F / 14°C 94% 29.83 in
(1010 mb)
Calm - 3SM
00:20
Overcast
Fog And Mist
59°F / 15°C 57°F / 14°C 94% 29.86 in
(1011 mb)
Calm - 4SM
00:11
Overcast
Fog And Mist
59°F / 15°C 57°F / 14°C 94% 29.86 in
(1011 mb)
Calm - 4SM
Time Weather Temperature Dewpoint Humidity Pressure Winds Precip Visibility


Weather for websites

WeatherForYou.com, LLC is not responsible for any damages or problems caused by this service. Current weather conditions are obtained from the closest station including government and personal stations which may have varying degrees of accuracy. Weather forecasts are derived from the NOAA NDFD. Like all things, this site belongs to Jesus Christ... He just trusts me to maintain it. If you have any questions or comments email webmaster@weatherforyou.com

Copyright © 2014, WeatherForYou.com LLC. All rights reserved.